DW9313 Weather Reports


Display with metric or nautical units.
time (UTC)temp
F
wind
direction
speed
MPH
gust
MPH
rain 1hr
in
rain 24hr
in
rain mn
in
humidity
%
barometer
mb
20170817173304 63 275 13.0 22.0 0.00 0.01 0.00 78 1006.4
20170817172803 63 292 13.0 29.0 0.00 0.01 0.00 79 1006.5
20170817172303 63 269 13.0 25.0 0.00 0.01 0.00 78 1006.5
20170817171803 64 274 10.0 21.0 0.00 0.01 0.00 78 1006.5
20170817171304 64 299 9.0 18.0 0.00 0.01 0.00 78 1006.5
20170817170803 64 274 12.0 22.0 0.00 0.01 0.00 78 1006.5
20170817170303 64 304 11.0 23.0 0.00 0.01 0.00 77 1006.4
20170817165803 64 272 12.0 23.0 0.00 0.01 0.00 78 1006.5
20170817165304 64 285 11.0 22.0 0.00 0.01 0.00 77 1006.6
20170817164804 64 285 12.0 21.0 0.00 0.01 0.00 77 1006.5
20170817164304 64 259 12.0 23.0 0.00 0.01 0.00 76 1006.6
20170817163804 65 272 14.0 25.0 0.00 0.01 0.00 76 1006.6
20170817163303 65 289 10.0 22.0 0.00 0.01 0.00 77 1006.6
20170817162804 65 284 12.0 22.0 0.00 0.01 0.00 78 1006.5
20170817162304 65 227 13.0 22.0 0.00 0.01 0.00 79 1006.7
20170817161804 64 274 13.0 25.0 0.00 0.01 0.00 78 1006.7
20170817161304 65 266 14.0 28.0 0.00 0.01 0.00 77 1006.7
20170817160805 65 261 12.0 23.0 0.00 0.01 0.00 78 1006.8
20170817160304 65 270 11.0 23.0 0.00 0.01 0.00 78 1006.8
20170817155804 65 271 14.0 26.0 0.00 0.01 0.00 78 1006.9
20170817155305 65 254 12.0 23.0 0.00 0.01 0.00 78 1006.9
20170817154804 65 258 13.0 25.0 0.00 0.01 0.00 78 1007.0
20170817154304 65 271 11.0 25.0 0.00 0.01 0.00 78 1007.1
20170817153805 65 270 12.0 25.0 0.00 0.01 0.00 77 1007.2
20170817153304 65 260 12.0 21.0 0.00 0.01 0.00 78 1007.1
20170817152804 66 255 11.0 22.0 0.00 0.01 0.00 77 1007.0
20170817152304 65 275 12.0 21.0 0.00 0.01 0.00 78 1007.0
20170817151804 65 270 14.0 25.0 0.00 0.01 0.00 77 1007.0
20170817151305 65 256 13.0 26.0 0.00 0.01 0.00 78 1007.0
20170817150804 65 227 12.0 22.0 0.00 0.01 0.00 78 1007.0
20170817150305 65 244 14.0 25.0 0.00 0.01 0.00 78 1007.0
20170817145805 65 276 15.0 28.0 0.00 0.01 0.00 79 1007.1
20170817145305 65 243 10.0 25.0 0.00 0.01 0.00 79 1006.9
20170817144804 65 245 12.0 26.0 0.00 0.01 0.00 79 1007.0
20170817144306 65 250 14.0 25.0 0.00 0.01 0.00 78 1007.0
20170817143805 65 240 12.0 22.0 0.00 0.01 0.00 78 1007.0
20170817143305 65 239 13.0 25.0 0.00 0.01 0.00 79 1007.1
20170817142805 65 260 12.0 28.0 0.00 0.01 0.00 78 1007.2
20170817142305 65 266 12.0 22.0 0.00 0.01 0.00 77 1007.1
20170817141805 66 256 13.0 28.0 0.00 0.01 0.00 78 1007.1
20170817141305 66 270 12.0 26.0 0.00 0.01 0.00 78 1007.2
20170817140805 66 287 14.0 28.0 0.00 0.01 0.00 77 1007.2
20170817140305 66 281 14.0 25.0 0.00 0.01 0.00 78 1007.2
20170817135805 66 276 13.0 26.0 0.00 0.01 0.00 77 1007.2
20170817135306 65 268 12.0 25.0 0.00 0.01 0.00 78 1007.2
20170817134806 65 229 12.0 23.0 0.00 0.01 0.00 78 1007.4
20170817134305 65 288 12.0 26.0 0.00 0.02 0.00 78 1007.3
20170817133806 66 269 12.0 25.0 0.00 0.02 0.00 77 1007.3
20170817133305 66 262 12.0 25.0 0.00 0.03 0.00 76 1007.4
20170817132805 66 283 12.0 25.0 0.00 0.03 0.00 76 1007.3
20170817132306 66 271 10.0 22.0 0.00 0.03 0.00 77 1007.4
20170817131806 66 273 11.0 26.0 0.00 0.03 0.00 78 1007.3
20170817131306 65 278 14.0 28.0 0.00 0.03 0.00 77 1007.4
20170817130805 65 275 12.0 21.0 0.00 0.03 0.00 77 1007.4
20170817130306 66 257 12.0 22.0 0.00 0.03 0.00 77 1007.5
20170817125805 66 262 12.0 25.0 0.00 0.03 0.00 77 1007.5
20170817125305 66 252 14.0 25.0 0.00 0.03 0.00 77 1007.5
20170817124806 65 272 13.0 23.0 0.00 0.03 0.00 78 1007.5
20170817124305 66 270 13.0 25.0 0.00 0.03 0.00 78 1007.5
20170817123806 66 246 12.0 25.0 0.00 0.03 0.00 78 1007.4
20170817123306 66 244 14.0 25.0 0.00 0.03 0.00 77 1007.4
20170817122806 66 281 14.0 28.0 0.00 0.03 0.00 78 1007.4
20170817122306 66 266 12.0 25.0 0.00 0.03 0.00 79 1007.4
20170817121806 66 304 14.0 25.0 0.00 0.03 0.00 78 1007.4
20170817121306 66 264 13.0 25.0 0.00 0.04 0.00 79 1007.4
20170817120806 66 257 10.0 25.0 0.00 0.04 0.00 80 1007.4
20170817120306 65 252 12.0 22.0 0.00 0.04 0.00 79 1007.4
20170817115807 66 270 12.0 20.0 0.00 0.05 0.00 79 1007.4
20170817115306 65 245 9.0 22.0 0.00 0.06 0.00 80 1007.4
20170817114806 65 305 12.0 22.0 0.00 0.07 0.00 80 1007.5
20170817114306 65 254 12.0 23.0 0.00 0.07 0.00 81 1007.6
20170817113807 65 251 8.0 20.0 0.00 0.09 0.00 82 1007.5
20170817113307 64 279 14.0 25.0 0.00 0.10 0.00 81 1007.5
20170817112814 65 244 13.0 25.0 0.00 0.11 0.00 81 1007.5
20170817112307 65 288 12.0 22.0 0.00 0.11 0.00 82 1007.6
20170817111806 65 242 12.0 25.0 0.00 0.12 0.00 82 1007.5
20170817111307 65 292 12.0 23.0 0.00 0.12 0.00 81 1007.7
20170817110806 65 264 13.0 22.0 0.00 0.12 0.00 81 1007.6
20170817110307 65 252 12.0 22.0 0.00 0.12 0.00 82 1007.5
20170817105807 65 268 10.0 21.0 0.00 0.12 0.00 82 1007.6
20170817105307 65 180 10.0 22.0 0.00 0.12 0.00 82 1007.5
20170817104807 65 277 12.0 22.0 0.00 0.13 0.00 82 1007.4
20170817104306 65 275 10.0 20.0 0.00 0.13 0.00 83 1007.4
20170817103814 65 250 12.0 22.0 0.00 0.14 0.00 82 1007.5
20170817103307 65 275 11.0 20.0 0.00 0.14 0.00 83 1007.6
20170817102807 65 267 11.0 22.0 0.00 0.14 0.00 84 1007.5
20170817102307 65 253 10.0 20.0 0.00 0.14 0.00 85 1007.6
20170817101807 65 222 10.0 20.0 0.00 0.14 0.00 87 1007.5
20170817101308 64 278 10.0 16.0 0.00 0.15 0.00 87 1007.5
20170817100307 64 305 7.0 16.0 0.00 0.15 0.00 88 1007.6
20170817095807 63 254 8.0 18.0 0.00 0.15 0.00 88 1007.6
20170817095307 63 255 9.0 20.0 0.00 0.15 0.00 89 1007.6
20170817094807 63 236 8.0 16.0 0.00 0.15 0.00 90 1007.6
20170817094307 62 279 8.0 20.0 0.00 0.15 0.00 90 1007.6
20170817093807 62 245 11.0 22.0 0.00 0.15 0.00 90 1007.5
20170817093308 61 264 7.0 16.0 0.00 0.15 0.00 90 1007.4
20170817092807 61 261 9.0 20.0 0.00 0.15 0.00 90 1007.5
20170817092309 61 226 8.0 15.0 0.00 0.16 0.00 91 1007.5
20170817091812 60 234 8.0 13.0 0.00 0.16 0.00 91 1007.5
20170817091308 60 220 7.0 12.0 0.00 0.16 0.00 91 1007.5
20170817090808 60 252 7.0 12.0 0.00 0.16 0.00 91 1007.6
20170817090308 60 227 7.0 14.0 0.00 0.16 0.00 91 1007.7
20170817085807 60 240 7.0 14.0 0.00 0.17 0.00 91 1007.7
20170817085308 60 218 5.0 14.0 0.00 0.17 0.00 91 1007.7
20170817084808 60 205 8.0 13.0 0.00 0.17 0.00 91 1007.8
20170817084308 60 246 7.0 15.0 0.00 0.17 0.00 91 1007.7
20170817083808 59 208 6.0 13.0 0.00 0.17 0.00 91 1007.8
20170817083307 59 243 4.0 9.0 0.00 0.17 0.00 91 1007.8
20170817082808 59 213 6.0 13.0 0.00 0.17 0.00 91 1007.9
20170817082308 59 271 5.0 12.0 0.00 0.17 0.00 91 1008.0
20170817081808 59 242 3.0 12.0 0.00 0.17 0.00 91 1008.0
20170817081308 59 324 3.0 13.0 0.00 0.17 0.00 91 1008.1
20170817080808 59 273 4.0 8.0 0.00 0.17 0.00 91 1008.1
20170817080309 58 217 3.0 8.0 0.00 0.17 0.00 91 1008.0
20170817075807 58 260 4.0 8.0 0.00 0.17 0.00 91 1008.1
20170817075309 58 270 2.0 7.0 0.00 0.17 0.00 91 1008.2
20170817074808 57 344 2.0 6.0 0.00 0.17 0.00 91 1008.3
20170817074308 57 218 2.0 5.0 0.00 0.17 0.00 91 1008.2
20170817073808 57 282 1.0 6.0 0.00 0.17 0.00 91 1008.2
20170817073309 57 225 0.0 2.0 0.00 0.17 0.00 91 1008.2
20170817072809 56 283 0.0 5.0 0.00 0.17 0.00 91 1008.2
20170817072315 56 229 0.0 5.0 0.00 0.17 0.00 91 1008.1
20170817071808 56 212 0.0 2.0 0.00 0.17 0.00 91 1008.1
20170817071308 56 132 1.0 2.0 0.00 0.17 0.00 91 1008.0
20170817070808 56 106 1.0 5.0 0.00 0.17 0.00 91 1008.0
20170817070309 56 205 1.0 6.0 0.00 0.17 0.00 91 1007.9
20170817065808 56 191 3.0 8.0 0.00 0.17 0.00 91 1007.9
20170817065309 56 203 3.0 6.0 0.00 0.17 0.00 91 1008.0
20170817064809 56 229 2.0 7.0 0.00 0.17 0.00 91 1008.1
20170817064309 56 264 1.0 5.0 0.00 0.17 0.00 91 1008.1
20170817063809 56 263 2.0 6.0 0.00 0.17 0.00 91 1008.1
20170817063309 55 246 2.0 6.0 0.00 0.17 0.00 91 1008.0
20170817062809 55 175 3.0 7.0 0.00 0.17 0.00 91 1008.0
20170817062309 55 201 0.0 2.0 0.00 0.17 0.00 91 1008.1
20170817061809 55 202 1.0 2.0 0.00 0.17 0.00 91 1008.0
20170817061309 55 272 0.0 0.0 0.00 0.17 0.00 91 1008.1
20170817060809 54 273 0.0 0.0 0.00 0.17 0.00 91 1008.0
20170817060309 54 273 0.0 0.0 0.00 0.17 0.00 91 1008.0
20170817055809 54 263 0.0 2.0 0.00 0.18 0.00 91 1008.0
20170817055309 53 346 0.0 6.0 0.00 0.18 0.00 91 1007.9
20170817054809 53 285 2.0 7.0 0.00 0.18 0.00 91 1007.9
20170817054309 53 281 1.0 6.0 0.00 0.18 0.00 91 1007.8
20170817053810 53 292 0.0 5.0 0.00 0.18 0.00 91 1007.8
20170817053310 53 288 1.0 2.0 0.00 0.18 0.00 91 1007.8
20170817052810 53 283 1.0 6.0 0.00 0.18 0.00 91 1007.7
20170817052309 53 267 1.0 7.0 0.00 0.18 0.00 91 1007.6
20170817051810 53 225 2.0 8.0 0.00 0.18 0.00 91 1007.6
20170817051310 53 206 2.0 8.0 0.00 0.18 0.00 91 1007.5
20170817050810 53 199 3.0 7.0 0.00 0.18 0.00 91 1007.5
20170817050310 53 224 2.0 6.0 0.00 0.18 0.00 91 1007.5
20170817045810 53 278 1.0 6.0 0.00 0.18 0.00 91 1007.5
20170817045310 53 274 2.0 6.0 0.00 0.18 0.00 91 1007.4
20170817044809 54 274 1.0 6.0 0.00 0.18 0.00 91 1007.4
20170817044310 54 263 1.0 6.0 0.00 0.18 0.00 91 1007.3
20170817043810 54 246 1.0 5.0 0.00 0.18 0.00 91 1007.2
20170817043310 54 268 0.0 0.0 0.00 0.18 0.00 91 1007.3
20170817042810 54 287 0.0 2.0 0.00 0.18 0.00 91 1007.3
20170817042310 54 286 0.0 0.0 0.00 0.18 0.00 91 1007.2
20170817041810 54 279 0.0 2.0 0.00 0.18 0.00 91 1007.2
20170817041310 54 253 2.0 6.0 0.00 0.18 0.00 91 1007.3
20170817040810 54 270 2.0 7.0 0.00 0.18 0.00 91 1007.3
20170817040310 54 257 2.0 6.0 0.00 0.18 0.00 91 1007.3
20170817035810 55 257 1.0 5.0 0.00 0.18 0.00 91 1007.3
20170817035310 55 218 0.0 2.0 0.00 0.18 0.00 91 1007.2
20170817034810 55 213 0.0 0.0 0.00 0.18 0.00 91 1007.2
20170817034311 55 209 0.0 0.0 0.00 0.18 0.00 91 1007.2
20170817033810 55 218 0.0 0.0 0.00 0.18 0.00 91 1007.2
20170817033310 56 218 0.0 0.0 0.00 0.18 0.00 91 1007.1
20170817032810 56 218 0.0 0.0 0.00 0.18 0.00 91 1007.1
20170817032310 56 253 0.0 2.0 0.00 0.18 0.00 91 1007.2
20170817031811 56 253 0.0 0.0 0.00 0.18 0.00 91 1007.1
20170817031310 56 253 0.0 0.0 0.00 0.18 0.00 91 1007.1
20170817030810 56 253 0.0 2.0 0.00 0.18 0.00 91 1007.1
20170817030310 56 253 0.0 2.0 0.00 0.18 0.00 91 1007.1
20170817025810 56 280 1.0 2.0 0.00 0.18 0.00 91 1007.1
20170817025311 56 247 1.0 2.0 0.00 0.18 0.00 91 1007.1
20170817024810 56 211 0.0 5.0 0.00 0.18 0.00 91 1007.0
20170817024311 56 277 0.0 0.0 0.00 0.18 0.00 91 1007.1
20170817023811 56 277 0.0 0.0 0.00 0.18 0.00 91 1007.1
20170817023311 57 277 0.0 0.0 0.00 0.18 0.00 91 1007.1
20170817022811 57 277 0.0 2.0 0.00 0.18 0.00 91 1007.2
20170817022311 57 269 0.0 2.0 0.00 0.18 0.00 91 1007.2
20170817021811 57 245 0.0 1.0 0.00 0.18 0.00 91 1007.2
20170817021311 57 242 0.0 0.0 0.00 0.18 0.00 91 1007.2
20170817020811 57 242 0.0 0.0 0.00 0.18 0.00 91 1007.2
20170817020311 57 242 0.0 2.0 0.00 0.18 0.00 91 1007.2
20170817015811 57 240 0.0 2.0 0.00 0.18 0.00 91 1007.1
20170817015311 57 178 1.0 2.0 0.00 0.18 0.00 91 1007.0
20170817014811 58 178 1.0 5.0 0.00 0.18 0.00 91 1007.0
20170817014311 58 254 0.0 2.0 0.00 0.18 0.00 91 1007.1
20170817013811 58 254 0.0 5.0 0.00 0.18 0.00 91 1007.1
20170817013311 58 304 0.0 2.0 0.00 0.18 0.00 91 1007.1
20170817012812 58 253 1.0 5.0 0.00 0.18 0.00 91 1007.1
20170817012311 58 270 1.0 5.0 0.00 0.18 0.00 90 1007.1
20170817011812 59 255 2.0 6.0 0.00 0.18 0.00 91 1007.1
20170817011312 59 212 1.0 6.0 0.00 0.18 0.00 90 1007.0
20170817010812 59 256 1.0 5.0 0.00 0.18 0.00 90 1007.0
20170817010312 59 270 2.0 5.0 0.00 0.18 0.00 90 1007.0
20170817005812 59 269 0.0 2.0 0.00 0.18 0.00 90 1007.1
20170817005311 59 289 0.0 2.0 0.00 0.18 0.00 90 1007.1
20170817004812 59 294 2.0 6.0 0.00 0.18 0.00 90 1006.9
20170817004312 59 273 3.0 6.0 0.00 0.18 0.00 90 1006.9
20170817003812 59 277 2.0 6.0 0.00 0.18 0.00 90 1006.9
20170817003312 60 283 2.0 6.0 0.00 0.18 0.00 90 1006.9
20170817002812 60 290 1.0 6.0 0.00 0.18 0.00 90 1007.0
20170817002311 60 292 3.0 7.0 0.00 0.18 0.00 90 1007.0
20170817001811 60 280 2.0 7.0 0.00 0.18 0.00 90 1007.0
20170817001312 60 291 2.0 7.0 0.00 0.18 0.00 90 1007.0
20170817000814 60 281 2.0 5.0 0.00 0.18 0.00 90 1007.0
20170817000312 60 307 3.0 6.0 0.00 0.18 0.00 90 1007.1
20170816235812 60 285 0.0 5.0 0.00 0.18 0.00 90 1007.0
20170816235312 60 289 2.0 6.0 0.00 0.18 0.00 90 1007.0
20170816234812 60 266 1.0 5.0 0.00 0.18 0.00 90 1007.1
20170816234312 60 283 2.0 6.0 0.00 0.18 0.00 90 1007.1
20170816233812 60 306 2.0 7.0 0.00 0.18 0.00 90 1007.2
20170816233313 60 267 1.0 6.0 0.00 0.18 0.00 90 1007.2
20170816232812 60 290 0.0 2.0 0.01 0.18 0.00 90 1007.2
20170816232313 60 287 2.0 5.0 0.01 0.18 0.00 90 1007.2
20170816231812 60 276 2.0 6.0 0.01 0.18 0.00 90 1007.2
20170816231313 60 261 2.0 6.0 0.01 0.18 0.00 90 1007.2
20170816230832 60 263 3.0 8.0 0.01 0.18 0.00 90 1007.0
20170816230313 60 205 3.0 8.0 0.01 0.18 0.00 90 1007.0
20170816225813 60 297 4.0 12.0 0.01 0.18 0.18 90 1007.2
20170816225312 60 278 5.0 8.0 0.01 0.18 0.18 90 1007.2
20170816224813 60 265 5.0 9.0 0.01 0.18 0.18 90 1007.3
20170816224313 60 285 4.0 9.0 0.01 0.18 0.18 90 1007.3
20170816223813 60 274 4.0 8.0 0.01 0.18 0.18 90 1007.3
20170816223313 60 257 3.0 8.0 0.01 0.18 0.18 90 1007.3
20170816222813 60 279 3.0 8.0 0.01 0.18 0.18 90 1007.2
20170816222313 60 279 3.0 12.0 0.00 0.17 0.17 90 1007.2
20170816221813 60 268 3.0 8.0 0.00 0.17 0.17 90 1007.3
20170816221313 60 289 3.0 8.0 0.00 0.17 0.17 90 1007.3
20170816220813 60 270 5.0 12.0 0.00 0.17 0.17 90 1007.2
20170816220313 60 253 4.0 8.0 0.00 0.17 0.17 90 1007.3
20170816215813 60 290 5.0 9.0 0.00 0.17 0.17 90 1007.4
20170816215313 60 275 4.0 8.0 0.00 0.17 0.17 90 1007.4
20170816214813 60 315 5.0 8.0 0.00 0.17 0.17 90 1007.5
20170816214313 60 264 6.0 9.0 0.00 0.17 0.17 90 1007.5
20170816213813 60 271 5.0 9.0 0.00 0.17 0.17 90 1007.5
20170816213313 60 280 5.0 9.0 0.00 0.17 0.17 90 1007.5
20170816212814 60 164 5.0 12.0 0.00 0.17 0.17 90 1007.6
20170816212314 60 256 5.0 9.0 0.00 0.17 0.17 90 1007.6
20170816211813 60 288 5.0 9.0 0.00 0.17 0.17 90 1007.8
20170816211313 60 190 5.0 12.0 0.00 0.17 0.17 90 1007.8
20170816210814 60 273 3.0 6.0 0.00 0.17 0.17 90 1007.9
20170816210314 60 175 3.0 7.0 0.00 0.17 0.17 90 1007.8
20170816205814 60 268 3.0 8.0 0.00 0.17 0.17 90 1007.8
20170816205313 61 236 3.0 8.0 0.00 0.17 0.17 90 1007.8
20170816204814 61 270 4.0 8.0 0.00 0.17 0.17 90 1007.9
20170816204314 61 322 3.0 7.0 0.00 0.17 0.17 90 1007.9
20170816203814 61 249 5.0 9.0 0.00 0.17 0.17 90 1007.9
20170816203313 61 226 3.0 12.0 0.00 0.17 0.17 90 1008.1
20170816202814 61 266 5.0 8.0 0.00 0.17 0.17 90 1008.1
20170816202314 61 146 3.0 9.0 0.00 0.17 0.17 90 1008.0
20170816201814 61 275 5.0 9.0 0.00 0.17 0.17 90 1008.0
20170816201313 61 307 4.0 9.0 0.00 0.17 0.17 90 1008.0
20170816200814 61 306 5.0 12.0 0.00 0.17 0.17 90 1007.9
20170816200314 61 277 7.0 10.0 0.00 0.17 0.17 90 1007.9
20170816195814 61 278 6.0 12.0 0.00 0.17 0.17 90 1007.9
20170816195314 61 245 5.0 13.0 0.00 0.17 0.17 90 1008.0
20170816194814 61 258 5.0 9.0 0.00 0.17 0.17 90 1008.0
20170816194314 61 261 6.0 13.0 0.00 0.17 0.17 90 1007.9
20170816193814 61 206 6.0 9.0 0.00 0.17 0.17 90 1007.8
20170816193315 61 253 6.0 12.0 0.00 0.17 0.17 90 1007.9
20170816192814 61 278 6.0 12.0 0.00 0.17 0.17 90 1007.9
20170816192314 61 276 7.0 12.0 0.00 0.17 0.17 90 1008.0
20170816191815 62 291 7.0 15.0 0.00 0.17 0.17 90 1008.1
20170816191314 62 252 6.0 13.0 0.00 0.17 0.17 90 1008.0
20170816190815 62 254 7.0 14.0 0.00 0.17 0.17 90 1008.0
20170816190314 62 284 7.0 14.0 0.00 0.17 0.17 90 1008.1
20170816185815 62 13 5.0 12.0 0.00 0.17 0.17 90 1008.0
20170816185315 62 252 7.0 15.0 0.00 0.17 0.17 90 1008.0
20170816184815 62 256 6.0 12.0 0.00 0.17 0.17 90 1008.1
20170816184315 62 297 5.0 12.0 0.00 0.17 0.17 90 1008.2
20170816183814 62 211 5.0 14.0 0.00 0.17 0.17 90 1008.2
20170816183315 62 32 5.0 12.0 0.00 0.17 0.17 90 1008.2
20170816182820 62 286 4.0 12.0 0.00 0.17 0.17 90 1008.3
20170816182315 62 241 4.0 9.0 0.00 0.17 0.17 90 1008.3
20170816181815 62 267 4.0 13.0 0.00 0.17 0.17 90 1008.2
20170816181315 62 270 7.0 13.0 0.00 0.17 0.17 90 1008.3
20170816180815 62 240 6.0 12.0 0.00 0.17 0.17 90 1008.3
20170816180315 62 213 6.0 14.0 0.00 0.17 0.17 90 1008.3
20170816175815 62 286 7.0 14.0 0.00 0.17 0.17 90 1008.3
20170816175315 62 266 6.0 14.0 0.00 0.17 0.17 90 1008.1
20170816174815 62 217 7.0 14.0 0.00 0.17 0.17 90 1008.1
20170816174315 62 265 7.0 15.0 0.00 0.17 0.17 90 1008.2
20170816173815 62 264 7.0 14.0 0.00 0.17 0.17 90 1008.3